[[{"header":{"parameterUnit":"m.s-1","parameterCategory":1,"la1":30.2991,"la2":30.254,"lo1":-89.0895,"lo2":-89.0444,"dy":0.0017,"dx":0.0017,"nx":28,"ny":28,"refTime":"2023-09-30T09:00:00:Z","depth":0,"parameterNumber":2,"parameterNumberName":"U-component_of_WINDS"},"data":[0,0,0,0,0,0,0,0,0,0,0,0,0,0,0,0,0,0,0,0,0,0,0,0,0,0,0,0,0,0,0,0,0,0,0,0,0,0,0,0,0,0,0,0,0,0,0,0,0,0,0,0,0,0,0,0,0,0,-5.2895,-5.2895,0,-5.2885,-5.2885,-5.2885,-5.2749,-5.2745,-5.2742,-5.2739,-5.273,-5.2732,-5.2735,0,0,0,0,0,0,0,0,0,0,0,0,0,-5.2801,-5.2804,-5.2895,-5.2895,-5.2895,-5.2885,-5.2885,-5.2885,-5.2749,-5.2745,-5.2741,-5.2737,-5.2729,-5.2732,-5.2736,0,0,0,0,0,0,0,0,0,0,0,0,0,-5.2822,-5.2805,-5.2895,-5.2826,-5.282,-5.2885,-5.2885,-5.2885,-5.275,-5.2745,-5.274,-5.2735,-5.2727,-5.2732,-5.2736,-5.2867,0,0,-5.275,-5.2752,0,0,0,0,0,0,0,0,-5.2821,-5.2825,-5.2837,-5.2831,-5.2824,-5.2813,-5.2848,-5.2879,-5.2751,-5.2777,-5.2738,-5.2732,-5.2762,-5.2763,-5.2772,-5.2867,-5.2866,-5.275,-5.2753,-5.2755,-5.2756,0,0,0,0,0,0,0,-5.282,-5.2825,-5.2891,-5.2837,-5.2829,-5.2797,-5.2794,-5.2854,-5.2798,-5.2774,-5.2764,-5.2765,-5.2757,-5.2768,-5.2771,-5.2866,-5.275,-5.2754,-5.2757,-5.2759,-5.3072,-5.3077,0,0,0,0,0,0,-5.2827,-5.2825,-5.2892,-5.2891,-5.281,-5.2803,-5.28,-5.2822,-5.2797,-5.2789,-5.2769,-5.2758,-5.2763,-5.2766,-5.277,-5.2924,-5.2755,-5.2759,-5.2762,-5.3066,-5.3073,-5.3079,0,0,0,0,0,0,-5.2826,-5.2835,-5.2892,-5.2855,-5.286,-5.281,-5.2836,-5.2824,-5.2835,-5.2794,-5.2783,-5.2791,-5.2759,-5.2764,-5.2845,-5.2922,-5.2761,-5.2765,-5.3059,-5.3068,-5.3076,-5.3232,0,0,0,0,0,0,-5.2824,-5.2835,-5.2883,-5.2857,-5.2863,-5.2966,-5.284,-5.2828,-5.2843,-5.2829,-5.2811,-5.2803,-5.2756,-5.2839,-5.2849,-5.2925,-5.2769,-5.3052,-5.3063,-5.3073,-5.322,-5.3245,-5.3266,0,0,0,0,0,-5.2821,-5.2927,-5.2886,-5.2895,-5.2922,-5.2971,-5.2974,-5.2917,-5.285,-5.2899,-5.2873,-5.2803,-5.2912,-5.2848,-5.2859,-5.2937,-5.3047,-5.306,-5.3072,-5.3209,-5.324,-5.3266,0,0,0,0,0,0,-5.2962,-5.2922,-5.2876,-5.2977,-5.2979,-5.2947,-5.3007,-5.295,-5.2971,-5.2957,-5.2886,-5.2883,-5.2975,-5.2964,-5.2894,-5.3065,-5.2968,-5.2983,-5.3068,-5.3097,-5.312,-5.3121,-5.2772,0,0,0,0,0,-5.3006,-5.3048,-5.3011,-5.3103,-5.3106,-5.3058,-5.3076,-5.3033,-5.3031,-5.3031,-5.301,-5.3013,-5.3047,-5.3071,-5.3101,-5.3218,-5.3213,-5.3277,-5.3301,-5.332,-5.3334,-5.3398,-5.3427,-5.3121,-5.3121,-5.312,0,0,-5.3095,-5.3078,-5.3109,-5.3132,-5.3127,-5.3174,-5.3058,-5.3112,-5.3147,-5.3039,-5.3114,-5.3101,-5.3098,-5.3199,-5.3242,-5.3192,-5.3418,-5.3336,-5.3352,-5.3355,-5.3414,-5.3443,-5.3469,-5.3129,-5.3128,-5.3126,0,0,-5.3281,-5.3272,-5.3349,-5.3348,-5.3344,-5.3311,-5.333,-5.3309,-5.3295,-5.337,-5.3291,-5.3332,-5.3393,-5.3395,-5.3404,-5.3597,-5.3535,-5.3609,-5.373,-5.3793,-5.3817,-5.3838,-5.3909,-5.3935,-5.3623,-5.3623,-5.3623,0,-5.3392,-5.3459,-5.3396,-5.3456,-5.347,-5.3376,-5.3455,-5.3457,-5.3463,-5.3475,-5.3419,-5.3496,-5.3487,-5.3589,-5.3636,-5.3646,-5.3667,-5.361,-5.3819,-5.3839,-5.3858,-5.3924,-5.3951,-5.3632,-5.3631,-5.363,-5.3629,0,-5.3597,-5.3645,-5.3708,-5.3717,-5.3738,-5.3807,-5.3757,-5.3786,-5.3742,-5.3716,-5.3795,-5.3782,-5.3809,-5.3829,-5.3786,-5.3926,-5.3896,-5.3831,-5.3732,-5.3897,-5.3959,-5.3983,-5.3645,-5.3642,-5.3639,-5.3637,0,0,-5.387,-5.3846,-5.387,-5.3874,-5.3864,-5.3901,-5.3968,-5.3994,-5.4021,-5.4029,-5.4085,-5.414,-5.4081,-5.4092,-5.4048,-5.4104,-5.426,-5.4032,-5.4031,-5.4077,-5.4416,-5.4466,-5.4496,-5.422,-5.4224,-5.4228,-5.4417,0,-5.4051,-5.4162,-5.411,-5.4228,-5.4273,-5.4186,-5.4244,-5.4246,-5.4225,-5.4261,-5.4237,-5.4278,-5.4196,-5.4202,-5.4253,-5.4231,-5.4328,-5.4216,-5.4272,-5.4275,-5.4276,-5.4528,-5.4579,-5.4758,-5.444,-5.4444,-5.4447,0,-5.4276,-5.4295,-5.4418,-5.4403,-5.442,-5.4473,-5.4494,-5.453,-5.4531,-5.4511,-5.4526,-5.4471,-5.4537,-5.444,-5.4532,-5.4458,-5.4478,-5.4471,-5.4476,-5.4479,-5.4371,-5.4539,-5.4813,-5.4841,-5.4484,-5.4481,-5.4479,0,-5.4465,-5.4521,-5.4602,-5.4608,-5.4592,-5.4632,-5.4628,-5.4624,-5.4644,-5.4664,-5.4677,-5.4704,-5.4719,-5.4743,-5.4698,-5.4631,-5.4797,-5.4695,-5.4784,-5.4786,-5.4823,-5.4821,-5.5106,-5.4836,-5.4835,-5.4835,-5.4834,0,-5.4672,-5.4751,-5.4687,-5.4737,-5.4824,-5.4765,-5.4853,-5.4839,-5.4837,-5.4884,-5.4811,-5.4858,-5.4795,-5.4836,-5.4802,-5.4885,-5.4892,-5.4879,-5.4869,-5.4886,-5.4888,-5.4898,-5.4885,-5.4842,-5.484,-5.4839,-5.4837,0,-5.4897,-5.4857,-5.494,-5.492,-5.4916,-5.4982,-5.4964,-5.5011,-5.4986,-5.5047,-5.5058,-5.5019,-5.5064,-5.5021,-5.5064,-5.5041,-5.5152,-5.5123,-5.5152,-5.5144,-5.5236,-5.5228,-5.5537,-5.5576,-5.5281,-5.5284,-5.5286,0,-5.5032,-5.5091,-5.5077,-5.5104,-5.5104,-5.5148,-5.5169,-5.5114,-5.5139,-5.5147,-5.5194,-5.5232,-5.526,-5.5337,-5.5313,-5.5346,-5.5318,-5.5424,-5.5322,-5.5339,-5.5321,-5.5319,-5.5325,-5.5445,-5.5448,-5.5451,-5.5453,0,-5.5277,-5.5255,-5.5288,-5.5315,-5.5343,-5.5361,-5.5375,-5.5401,-5.5345,-5.5377,-5.5422,-5.5445,-5.5489,-5.5529,-5.5556,-5.5552,-5.5495,-5.5486,-5.5509,-5.5526,-5.5541,-5.5536,-5.5209,-5.5479,-5.5476,-5.5474,-5.5473,-5.5472,-5.5461,-5.5511,-5.551,-5.555,-5.5555,-5.557,-5.5613,-5.5595,-5.5631,-5.5663,-5.5629,-5.5685,-5.5688,-5.5717,-5.5721,-5.5766,-5.5721,-5.5753,-5.5762,-5.5771,-5.5785,-5.5534,-5.577,-5.5769,-5.5769,-5.5768,-5.5767,0,-5.5703,-5.5699,-5.5737,-5.5758,-5.5791,-5.5735,-5.5747,-5.5779,-5.5829,-5.5836,-5.5866,-5.592,-5.596,-5.5941,-5.5976,-5.6015,-5.599,-5.6027,-5.6023,-5.6024,-5.5822,-5.5799,-5.6046,-5.6046,-5.6046,-5.6046,-5.6046,-5.6046,-5.5833,-5.5915,-5.5894,-5.5978,-5.5974,-5.6028,-5.6041,-5.6055,-5.6061,-5.6125,-5.6158,-5.6145,-5.6143,-5.6178,-5.6213,-5.6206,-5.6223,-5.6269,-5.6254,-5.6065,-5.6038,-5.6011,-5.599,-5.6273,-5.6273,-5.6452,-5.6454,-5.6455]},{"header":{"parameterUnit":"m.s-1","parameterCategory":1,"la1":30.2991,"la2":30.254,"lo1":-89.0895,"lo2":-89.0444,"dy":0.0017,"dx":0.0017,"nx":28,"ny":28,"refTime":"2023-09-30T09:00:00:Z","depth":0,"parameterNumber":3,"parameterNumberName":"V-component_of_WINDS"},"data":[0,0,0,0,0,0,0,0,0,0,0,0,0,0,0,0,0,0,0,0,0,0,0,0,0,0,0,0,0,0,0,0,0,0,0,0,0,0,0,0,0,0,0,0,0,0,0,0,0,0,0,0,0,0,0,0,0,0,1.2059,1.2059,0,1.2062,1.2062,1.2062,1.2121,1.2122,1.2124,1.2125,1.2122,1.212,1.2119,0,0,0,0,0,0,0,0,0,0,0,0,0,1.2098,1.2097,1.2059,1.2059,1.2059,1.2062,1.2062,1.2062,1.212,1.2122,1.2124,1.2126,1.2122,1.212,1.2119,0,0,0,0,0,0,0,0,0,0,0,0,0,1.2088,1.2096,1.2059,1.2088,1.2091,1.2062,1.2062,1.2062,1.212,1.2122,1.2125,1.2127,1.2123,1.2121,1.2118,1.2059,0,0,1.2111,1.211,0,0,0,0,0,0,0,0,1.2089,1.2087,1.2084,1.2086,1.2089,1.2093,1.2075,1.2061,1.2119,1.2109,1.2125,1.2128,1.211,1.2109,1.2104,1.2059,1.2058,1.2111,1.211,1.2109,1.2108,0,0,0,0,0,0,0,1.2089,1.2087,1.206,1.2084,1.2087,1.21,1.2101,1.2072,1.2096,1.211,1.2114,1.2114,1.2112,1.2106,1.2105,1.2058,1.2111,1.2109,1.2108,1.2107,1.1964,1.1961,0,0,0,0,0,0,1.2087,1.2087,1.206,1.206,1.2095,1.2097,1.2099,1.209,1.2097,1.21,1.2112,1.2117,1.2109,1.2107,1.2105,1.2034,1.2109,1.2107,1.2105,1.1966,1.1963,1.196,0,0,0,0,0,0,1.2087,1.2084,1.2059,1.2075,1.2073,1.2094,1.2084,1.2088,1.2083,1.2099,1.2103,1.2102,1.2111,1.2108,1.207,1.2035,1.2106,1.2104,1.1969,1.1965,1.1962,1.1893,0,0,0,0,0,0,1.2088,1.2084,1.2062,1.2074,1.2072,1.2026,1.2081,1.2087,1.208,1.2086,1.2091,1.2093,1.2112,1.2073,1.2068,1.2033,1.2102,1.1972,1.1967,1.1963,1.1899,1.1888,1.1879,0,0,0,0,0,1.2089,1.2041,1.2061,1.2057,1.2046,1.2024,1.2022,1.2047,1.2077,1.2054,1.2065,1.2093,1.2041,1.2069,1.2063,1.2027,1.1974,1.1969,1.1963,1.1903,1.189,1.1879,0,0,0,0,0,0,1.2022,1.2043,1.2065,1.202,1.202,1.2034,1.2006,1.2032,1.2022,1.2028,1.2057,1.2058,1.2015,1.2018,1.2049,1.197,1.2013,1.2006,1.1969,1.1956,1.1946,1.1945,1.21,0,0,0,0,0,1.2003,1.1985,1.2004,1.1962,1.1961,1.1984,1.1975,1.1995,1.1995,1.1995,1.2002,1.1999,1.1983,1.197,1.1956,1.1901,1.1902,1.1874,1.1864,1.1855,1.1848,1.1818,1.1805,1.1942,1.1942,1.1943,0,0,1.196,1.197,1.1956,1.1949,1.1951,1.193,1.1983,1.1959,1.1943,1.199,1.1955,1.1961,1.196,1.1913,1.1893,1.1914,1.1811,1.1848,1.1841,1.1838,1.1811,1.1798,1.1786,1.1939,1.1939,1.194,0,0,1.1873,1.1879,1.1845,1.1847,1.1851,1.1867,1.1859,1.187,1.1876,1.1842,1.1877,1.1858,1.1828,1.1826,1.1821,1.1736,1.176,1.173,1.1675,1.1646,1.1635,1.1625,1.1592,1.158,1.1723,1.1723,1.1723,0,1.1819,1.1791,1.1823,1.1797,1.1792,1.1837,1.1801,1.1801,1.1799,1.1793,1.1819,1.1783,1.1786,1.1739,1.1718,1.1714,1.1703,1.1727,1.1634,1.1625,1.1617,1.1585,1.1573,1.1719,1.172,1.172,1.172,0,1.1723,1.1704,1.1675,1.1675,1.1667,1.1636,1.1662,1.165,1.1671,1.1684,1.1648,1.1654,1.1641,1.1632,1.1651,1.1587,1.16,1.163,1.1672,1.1599,1.157,1.1558,1.1714,1.1715,1.1716,1.1717,0,0,1.1589,1.1609,1.1598,1.1598,1.1607,1.1592,1.1563,1.1553,1.1541,1.1539,1.1513,1.1489,1.1517,1.1511,1.1531,1.1506,1.1435,1.1538,1.1539,1.1516,1.1363,1.1338,1.1324,1.1454,1.1452,1.145,1.1362,0,1.1502,1.1455,1.1484,1.1432,1.1413,1.1458,1.1432,1.1434,1.1446,1.1431,1.1443,1.1424,1.1464,1.1461,1.1438,1.1449,1.1404,1.1456,1.1427,1.1426,1.1422,1.1309,1.1282,1.1198,1.1351,1.1349,1.1348,0,1.1393,1.1389,1.1335,1.1349,1.1342,1.1319,1.1312,1.1298,1.1301,1.1311,1.1307,1.1333,1.1304,1.135,1.1309,1.1343,1.1334,1.1338,1.1335,1.133,1.1379,1.1297,1.1173,1.1158,1.1331,1.1332,1.1334,0,1.1297,1.1278,1.1243,1.1242,1.1258,1.1241,1.1246,1.1252,1.1244,1.1238,1.1233,1.1223,1.1217,1.1208,1.123,1.1262,1.1186,1.1233,1.1191,1.119,1.1169,1.1169,1.1037,1.1169,1.1169,1.117,1.117,0,1.1194,1.1158,1.12,1.1178,1.1139,1.1174,1.1134,1.1145,1.115,1.1129,1.1168,1.1147,1.1181,1.1163,1.1181,1.1143,1.1141,1.1147,1.1151,1.1141,1.114,1.1132,1.1137,1.1166,1.1167,1.1168,1.1168,0,1.1077,1.1104,1.1069,1.1089,1.1093,1.1063,1.1078,1.1058,1.1075,1.1048,1.1044,1.1068,1.105,1.1074,1.1057,1.1069,1.1016,1.1031,1.1015,1.1018,1.0973,1.0975,1.0828,1.0809,1.0957,1.0955,1.0954,0,1.1008,1.0982,1.1,1.099,1.0994,1.0978,1.0971,1.1005,1.0996,1.0999,1.0977,1.0963,1.0953,1.0921,1.0936,1.0923,1.0936,1.0886,1.0934,1.0924,1.0931,1.0931,1.0927,1.0874,1.0872,1.0871,1.0869,0,1.0881,1.0897,1.0886,1.0881,1.0872,1.0869,1.0869,1.0858,1.0894,1.0881,1.0864,1.0857,1.0841,1.0825,1.0818,1.0821,1.0849,1.0855,1.0844,1.0831,1.0821,1.0823,1.0984,1.0857,1.0858,1.0859,1.086,1.086,1.0784,1.0763,1.0772,1.076,1.0764,1.0763,1.0745,1.076,1.0748,1.0739,1.076,1.0737,1.0742,1.0735,1.0735,1.0717,1.0738,1.0723,1.0718,1.0713,1.0705,1.0828,1.0716,1.0717,1.0717,1.0717,1.0718,0,1.0656,1.0666,1.0654,1.0653,1.0643,1.0676,1.0678,1.0666,1.0647,1.065,1.064,1.062,1.0606,1.0622,1.061,1.0592,1.0605,1.0587,1.0586,1.0586,1.0688,1.0697,1.0577,1.0577,1.0577,1.0577,1.0577,1.0577,1.0589,1.0554,1.0571,1.0539,1.0548,1.0528,1.0526,1.0525,1.0528,1.0505,1.0494,1.0506,1.0513,1.0502,1.049,1.0495,1.0487,1.0464,1.0473,1.0566,1.0579,1.0592,1.0601,1.0463,1.0463,1.0373,1.0372,1.0371]}]]